Location: Newark
(3.8000°S, 102.2500°E)
Time: 14:19:16
(UTC+00:00)

N. Korean satellite - Visible Passes

Search period start: 30 September 2020 00:00
Search period end: 10 October 2020 00:00
Orbit: 455 x 503 km, 97.2° (Epoch: 29 September)

Date Brightness Start Highest point End Pass type
(mag) Time Alt. Az. Time Alt. Az. Time Alt. Az.
30 Sep 6.8 22:13:16 10° NNE 22:16:42 67° E 22:20:07 10° S visible
01 Oct 9.2 21:47:58 10° NE 21:50:43 23° ESE 21:53:29 10° SSE visible
03 Oct 6.4 22:28:26 10° N 22:31:49 60° WNW 22:35:13 10° SSW visible
04 Oct 7.9 22:02:34 10° NNE 22:05:50 41° ESE 22:09:05 10° S visible
05 Oct 9.8 21:37:47 10° ENE 21:39:50 15° ESE 21:41:53 10° SE visible
07 Oct 6.5 22:17:29 10° NNE 22:20:53 83° E 22:24:18 10° S visible
08 Oct 8.8 21:51:57 10° NE 21:54:53 26° ESE 21:57:48 10° SSE visible
